Regional Weather Roundup
Issued by NWS

Home | Current Version | Previous Version | Text Only | Print | Product List | Glossary On
Versions: 1 2 3 4 5 6 7 8 9 10 11 12 13 14 15 16 17 18 19 20 21 22 23 24 25 26 27 28
000
ASUS44 KBMX 260010
RWRAL

ALABAMA REGIONAL WEATHER ROUNDUP
NATIONAL WEATHER SERVICE BIRMINGHAM AL
700 PM CDT SUN SEP 25 2016

NOTE: "FAIR" INDICATES FEW OR NO CLOUDS BELOW 12,000 FEET
WITH NO SIGNIFICANT WEATHER AND/OR OBSTRUCTIONS TO VISIBILITY.

THE REMARK "TC" DENOTES TEMPERATURE IN DEGREES CELSIUS.

ALZ001>011-014-016>018-020-260100-
NORTH ALABAMA

CITY           SKY/WX    TMP DP  RH WIND       PRES   REMARKS
MUSCLE SHOALS  CLEAR     88  59  37 VRB3      29.99R
6HR MIN TEMP:  88; 6HR MAX TEMP:  99;

HUNTSVILLE     MOCLDY    91  56  30 NE5       29.98R
6HR MIN TEMP:  91; 6HR MAX TEMP:  99;

DECATUR        PTCLDY    83  58  42 N5        29.98S
6HR MIN TEMP:  83; 6HR MAX TEMP:  99;

HALEYVILLE     FAIR      80  64  58 CALM      30.01S
6HR MIN TEMP:  80; 6HR MAX TEMP:  96;

GADSDEN        CLOUDY    83  69  62 CALM      29.98S
6HR MIN TEMP:  83; 6HR MAX TEMP:  97;

$$

ALZ012-013-022-023-030>036-040>044-260100-
WEST CENTRAL ALABAMA

CITY           SKY/WX    TMP DP  RH WIND       PRES   REMARKS
TUSCALOOSA     CLEAR     81  67  62 CALM      29.95S
6HR MIN TEMP:  81; 6HR MAX TEMP:  98;

$$

ALZ015-024>027-033>036-040>044-260100-
CENTRAL ALABAMA

CITY           SKY/WX    TMP DP  RH WIND       PRES   REMARKS
BIRMINGHAM     PTCLDY    91  55  29 E3        29.99S
6HR MIN TEMP:  91; 6HR MAX TEMP:  98;

MONTGOMERY     PTCLDY    84  66  54 SE9       29.99R
6HR MIN TEMP:  84; 6HR MAX TEMP:  98;

SHELBY CO ARPT CLEAR     85  57  38 CALM      29.98R
6HR MIN TEMP:  85; 6HR MAX TEMP:  98;

MAXWELL AFB    PTCLDY    83  69  62 SE5       29.98R
6HR MIN TEMP:  83; 6HR MAX TEMP:  96;

GREENVILLE     NOT AVBL
$$

ALZ019-021-028-029-037-038-045>048-260100-
EAST CENTRAL ALABAMA

CITY           SKY/WX    TMP DP  RH WIND       PRES   REMARKS
ANNISTON       CLEAR     88  57  34 E3        30.00R
6HR MIN TEMP:  88; 6HR MAX TEMP:  98;

ALEXANDER CITY CLEAR     88  73  61 S3        30.02R HX  95
6HR MIN TEMP:  88; 6HR MAX TEMP:  98;

AUBURN         PTCLDY    83  67  58 E5        30.04R
6HR MIN TEMP:  83; 6HR MAX TEMP:  96;

$$

ALZ051>064-260100-
SOUTHWEST ALABAMA

CITY           SKY/WX    TMP DP  RH WIND       PRES   REMARKS
MOBILE         MOCLDY    74  72  93 CALM      29.98R
6HR MIN TEMP:  74; 6HR MAX TEMP:  90; 6HR PCP:  0.01;

BROOKLEY FIELD MOCLDY    77  70  79 CALM      29.99R
6HR MIN TEMP:  77; 6HR MAX TEMP:  91; 6HR PCP: TRACE;

EVERGREEN      CLOUDY    78  71  79 CALM      29.98R
6HR MIN TEMP:  77; 6HR MAX TEMP:  95; 6HR PCP: TRACE;

$$

ALZ049-050-065>069-260100-
SOUTHEAST ALABAMA

CITY           SKY/WX    TMP DP  RH WIND       PRES   REMARKS
DOTHAN         MOCLDY    77  73  87 SE5       30.04R
6HR MIN TEMP:  77; 6HR MAX TEMP:  92; 6HR PCP: TRACE;

OZARK          CLOUDY    74  73  93 SE7       30.00R
6HR MIN TEMP:  73; 6HR MAX TEMP:  94; 6HR PCP:  0.45;

TROY           CLEAR     74  72  93 SE5       30.00R
6HR MIN TEMP:  74; 6HR MAX TEMP:  94; 6HR PCP: TRACE;

EUFAULA        FAIR      81  69  67 SE12G20   30.00R THUNDER
6HR MIN TEMP:  81; 6HR MAX TEMP:  93; 6HR PCP: TRACE;

$$




USA.gov is the U.S. government's official web portal to all federal, state and local government web resources and services.